Weather History for Danville, IL

Change the Weather History Date:

Tuesday, February 5, 2013

  Actual Average (KLAF) Record (KLAF)
Temperature  
Mean Temperature 30 °F 28 °F  
Max Temperature 37 °F 36 °F 60 °F (2008)
Min Temperature 24 °F 20 °F -16 °F (1979)
Degree Days  
Heating Degree Days 34 37  
Month to date heating degree days 186  
Since 1 July heating degree days 3554  
Cooling Degree Days 0 0  
Month to date cooling degree days 0  
Year to date cooling degree days 0  
Moisture  
Dew Point 27 °F    
Average Humidity 87    
Maximum Humidity 100    
Minimum Humidity 80    
Precipitation  
Precipitation 0.00 in 0.06 in 1.66 in (2008)
Month to date precipitation 0.28  
Year to date precipitation 2.14  
Sea Level Pressure  
Sea Level Pressure 29.91 in    
Wind  
Wind Speed 6 mph (West)    
Max Wind Speed 18 mph    
Max Gust Speed 26 mph    
Visibility 8 miles    
Events      
T = Trace of Precipitation, MM = Missing Value Source: NWS Daily Summary

Daily Weather History Graph

Daily Weather History Graph

Search for Another Location

Airport:

Trip Planner

Search our weather history database for the weather conditions in past years. The results will help you decide how hot, cold, wet, or windy it might be!

Date:

Astronomy

Feb. 05, 2013 Rise Set
Actual Time 6:54 AM CST 5:14 PM CST
Civil Twilight 6:26 AM CST 5:42 PM CST
Nautical Twilight 5:54 AM CST 6:15 PM CST
Astronomical Twilight 5:22 AM CST 6:46 PM CST
Moon 2:36 AM CST (2/5) 12:31 PM CST (2/5)
Length of Visible Light 11h 16m
Length of Day
10h 19m
Waning Crescent, 26% of the Moon is Illuminated
Feb 5
Waning Crescent
Feb 10
New
Feb 17
First Quarter
Feb 25
Full
Mar 4
Last Quarter

Hourly Weather History & Observations

Time (CST) Temp. Windchill Dew Point Humidity Pressure Visibility Wind Dir Wind Speed Gust Speed Precip Events Conditions
12:15 AM 28.4 °F - 25.3 °F 88% 29.91 in 10.0 mi Calm Calm - N/A   Clear
12:35 AM 28.0 °F - 25.2 °F 89% 29.91 in 10.0 mi Calm Calm - N/A   Clear
12:55 AM 28.0 °F - 24.6 °F 87% 29.91 in 10.0 mi Calm Calm - N/A   Clear
1:15 AM 26.8 °F - 24.3 °F 90% 29.90 in 10.0 mi Calm Calm - N/A   Clear
1:35 AM 25.3 °F 21.1 °F 23.5 °F 93% 29.91 in 10.0 mi North 3.5 mph - N/A   Clear
1:55 AM 25.7 °F 21.5 °F 23.5 °F 92% 29.91 in 10.0 mi North 3.5 mph - N/A   Clear
2:15 AM 25.5 °F 21.3 °F 23.5 °F 92% 29.90 in 10.0 mi NE 3.5 mph - N/A   Clear
2:35 AM 26.4 °F 22.4 °F 23.5 °F 89% 29.90 in 10.0 mi NE 3.5 mph - N/A   Clear
2:55 AM 25.3 °F 21.1 °F 22.8 °F 90% 29.90 in 10.0 mi NW 3.5 mph - N/A   Clear
3:15 AM 26.1 °F 21.9 °F 23.7 °F 91% 29.90 in 10.0 mi NW 3.5 mph - N/A   Clear
3:35 AM 26.6 °F - 24.8 °F 93% 29.90 in 10.0 mi Calm Calm - N/A   Clear
3:55 AM 25.7 °F - 23.9 °F 93% 29.90 in 7.0 mi Calm Calm - N/A   Mostly Cloudy
4:15 AM 25.3 °F - 23.9 °F 94% 29.90 in 7.0 mi Calm Calm - N/A   Scattered Clouds
4:35 AM 24.6 °F - 23.4 °F 95% 29.91 in 5.0 mi Calm Calm - N/A   Clear
4:55 AM 24.3 °F - 23.0 °F 95% 29.91 in 5.0 mi Calm Calm - N/A   Clear
5:15 AM 24.4 °F - 23.4 °F 96% 29.91 in 5.0 mi Calm Calm - N/A   Clear
5:35 AM 24.8 °F - 24.8 °F 100% 29.90 in 5.0 mi Calm Calm - N/A   Clear
5:55 AM 24.8 °F - 24.8 °F 100% 29.89 in 4.0 mi Calm Calm - N/A   Clear
6:15 AM 25.5 °F - 24.4 °F 96% 29.90 in 4.0 mi Calm Calm - N/A   Clear
6:35 AM 25.7 °F 21.5 °F 24.8 °F 96% 29.88 in 5.0 mi SSE 3.5 mph - N/A   Scattered Clouds
6:55 AM 26.4 °F 20.9 °F 24.8 °F 94% 29.90 in 5.0 mi SSW 4.6 mph - N/A   Mostly Cloudy
7:15 AM 26.4 °F 22.4 °F 24.4 °F 92% 29.91 in 5.0 mi SW 3.5 mph - N/A   Mostly Cloudy
7:35 AM 26.6 °F 21.2 °F 24.4 °F 92% 29.91 in 7.0 mi SSW 4.6 mph - N/A   Mostly Cloudy
7:55 AM 27.1 °F - 24.4 °F 90% 29.91 in 7.0 mi Calm Calm - N/A   Mostly Cloudy
8:15 AM 27.5 °F 21.1 °F 24.8 °F 90% 29.90 in 7.0 mi South 5.8 mph - N/A   Scattered Clouds
8:35 AM 27.7 °F 21.3 °F 24.6 °F 88% 29.90 in 7.0 mi South 5.8 mph - N/A   Mostly Cloudy
8:55 AM 28.0 °F 20.8 °F 25.0 °F 88% 29.90 in 10.0 mi South 6.9 mph - N/A   Overcast
9:15 AM 28.6 °F 20.7 °F 25.3 °F 88% 29.89 in 7.0 mi SSE 8.1 mph - N/A   Scattered Clouds
9:35 AM 28.9 °F 21.1 °F 25.3 °F 86% 29.90 in 7.0 mi South 8.1 mph - N/A   Mostly Cloudy
9:55 AM 29.5 °F 22.5 °F 25.7 °F 86% 29.89 in 7.0 mi South 6.9 mph - N/A   Mostly Cloudy
10:15 AM 30.2 °F 21.3 °F 25.9 °F 84% 29.88 in 10.0 mi South 10.4 mph - N/A   Mostly Cloudy
10:35 AM 30.9 °F 22.8 °F 25.9 °F 82% 29.88 in 10.0 mi South 9.2 mph - N/A   Mostly Cloudy
10:55 AM 31.3 °F 21.1 °F 26.6 °F 83% 29.87 in 10.0 mi SSW 13.8 mph 17.3 mph N/A   Scattered Clouds
11:15 AM 31.5 °F 22.3 °F 27.5 °F 85% 29.86 in 10.0 mi South 11.5 mph - N/A   Scattered Clouds
11:35 AM 32.0 °F 22.5 °F 27.9 °F 85% 29.85 in 7.0 mi SSW 12.7 mph 18.4 mph N/A   Scattered Clouds
11:55 AM 32.0 °F 20.8 °F 28.2 °F 86% 29.84 in 7.0 mi SSW 17.3 mph 23.0 mph N/A   Scattered Clouds
12:15 PM 32.5 °F 21.9 °F 28.4 °F 85% 29.83 in 10.0 mi SW 16.1 mph 24.2 mph N/A   Scattered Clouds
12:35 PM 33.3 °F 22.1 °F 29.3 °F 85% 29.81 in 7.0 mi SW 18.4 mph 24.2 mph N/A   Scattered Clouds
12:55 PM 34.9 °F 24.9 °F 30.6 °F 84% 29.80 in 7.0 mi SW 16.1 mph 26.5 mph N/A   Scattered Clouds
1:15 PM 35.2 °F 25.4 °F 30.6 °F 83% 29.80 in 7.0 mi SW 16.1 mph 24.2 mph N/A   Scattered Clouds
1:35 PM 34.7 °F 25.1 °F 30.2 °F 84% 29.80 in 7.0 mi SW 15.0 mph 23.0 mph N/A   Scattered Clouds
1:55 PM 34.9 °F 24.9 °F 30.4 °F 84% 29.80 in 7.0 mi SW 16.1 mph 19.6 mph N/A   Mostly Cloudy
2:15 PM 35.6 °F 27.5 °F 30.9 °F 83% 29.81 in 7.0 mi WSW 11.5 mph - N/A   Overcast
2:35 PM 35.6 °F 26.6 °F 31.3 °F 84% 29.81 in 5.0 mi WSW 13.8 mph - N/A   Haze
2:55 PM 36.1 °F 27.7 °F 31.3 °F 83% 29.83 in 5.0 mi West 12.7 mph - N/A   Haze
3:15 PM 36.5 °F 28.2 °F 31.8 °F 83% 29.83 in 7.0 mi West 12.7 mph 17.3 mph N/A   Overcast
3:35 PM 36.9 °F 28.7 °F 32.0 °F 83% 29.84 in 7.0 mi WSW 12.7 mph - N/A   Mostly Cloudy
3:55 PM 36.9 °F 29.6 °F 32.0 °F 83% 29.85 in 7.0 mi WSW 10.4 mph - N/A   Mostly Cloudy
4:15 PM 37.0 °F 29.8 °F 32.0 °F 82% 29.86 in 7.0 mi West 10.4 mph - N/A   Mostly Cloudy
4:35 PM 37.0 °F 29.8 °F 32.0 °F 82% 29.87 in 7.0 mi West 10.4 mph - N/A   Mostly Cloudy
4:55 PM 37.0 °F 30.4 °F 32.2 °F 83% 29.88 in 7.0 mi West 9.2 mph - N/A   Overcast
5:15 PM 36.7 °F 32.0 °F 32.2 °F 84% 29.88 in 7.0 mi West 5.8 mph - N/A   Overcast
5:35 PM 35.4 °F 29.7 °F 31.8 °F 87% 29.89 in 7.0 mi WNW 6.9 mph - N/A   Mostly Cloudy
5:55 PM 35.8 °F 30.9 °F 32.0 °F 86% 29.90 in 7.0 mi WNW 5.8 mph - N/A   Mostly Cloudy
6:15 PM 36.1 °F 31.4 °F 32.0 °F 85% 29.91 in 7.0 mi WNW 5.8 mph - N/A   Overcast
6:35 PM 35.8 °F 30.1 °F 32.0 °F 86% 29.93 in 7.0 mi WNW 6.9 mph - N/A   Overcast
6:55 PM 36.0 °F 29.0 °F 31.6 °F 84% 29.93 in 7.0 mi WNW 9.2 mph - N/A   Overcast
7:15 PM 36.0 °F 27.5 °F 31.1 °F 82% 29.95 in 7.0 mi WNW 12.7 mph 17.3 mph N/A   Overcast
7:35 PM 35.6 °F 26.6 °F 30.9 °F 83% 29.96 in 10.0 mi NW 13.8 mph 19.6 mph N/A   Overcast
7:55 PM 34.7 °F 24.7 °F 30.0 °F 83% 29.97 in 10.0 mi NW 16.1 mph 25.3 mph N/A   Overcast
8:15 PM 34.7 °F 25.9 °F 29.7 °F 82% 29.98 in 10.0 mi NW 12.7 mph 21.9 mph N/A   Overcast
8:35 PM 33.8 °F 25.3 °F 30.0 °F 86% 29.99 in 7.0 mi NW 11.5 mph 16.1 mph N/A   Overcast
8:55 PM 33.3 °F 24.6 °F 29.8 °F 87% 30.00 in 7.0 mi NW 11.5 mph 19.6 mph N/A   Overcast
9:15 PM 32.9 °F 23.2 °F 29.3 °F 87% 30.01 in 7.0 mi NNW 13.8 mph 20.7 mph N/A   Overcast
9:35 PM 32.4 °F 23.0 °F 29.1 °F 88% 30.01 in 7.0 mi NNW 12.7 mph 18.4 mph N/A   Overcast
9:55 PM 32.0 °F 20.8 °F 27.9 °F 85% 30.03 in 10.0 mi NW 17.3 mph 21.9 mph N/A   Overcast
10:15 PM 32.0 °F 22.5 °F 28.0 °F 85% 30.03 in 10.0 mi NNW 12.7 mph - N/A   Overcast
10:35 PM 31.8 °F 22.8 °F 27.3 °F 83% 30.03 in 10.0 mi NW 11.5 mph 18.4 mph N/A   Overcast
10:55 PM 31.8 °F 23.3 °F 26.4 °F 80% 30.05 in 10.0 mi NW 10.4 mph 17.3 mph N/A   Overcast
11:15 PM 31.5 °F 22.3 °F 26.4 °F 82% 30.05 in 10.0 mi NNW 11.5 mph - N/A   Overcast
11:35 PM 31.6 °F 22.6 °F 26.4 °F 81% 30.06 in 10.0 mi NW 11.5 mph - N/A   Overcast
11:55 PM 31.8 °F 22.8 °F 26.2 °F 80% 30.07 in 10.0 mi NNW 11.5 mph - N/A   Overcast